Regional Weather Roundup
Issued by NWS

Home | Current Version | Previous Version | Graphics & Text | Print | Product List | Glossary On
Versions: 1 2 3 4 5 6 7 8 9 10 11 12 13 14 15 16 17 18 19 20 21 22 23 24 25 26 27 28 29 30 31 32 33 34 35 36 37 38 39 40 41 42 43 44 45 46 47 48 49 50
000
ASUS45 KABQ 190610
RWRNM
WEATHER ROUNDUP FOR NEW MEXICO
NATIONAL WEATHER SERVICE ALBUQUERQUE NM
1100 PM MST THU DEC 18 2014

NOTE: "FAIR" MEANS FEW OR NO CLOUDS BELOW 12,000 FEET AGL WITH NO
       SIGNIFICANT WEATHER OR OBSTRUCTIONS TO VISION.

      THIS PRODUCT IS RELEASED AS TWO VERSIONS.  ONE VERSION NEAR
      THE TOP OF THE HOUR CONTAINING PRELIMINARY DATA FROM ALBUQUERQUE
      AND OTHER STATIONS.  A FINAL VERSION WITH ADDITIONAL DATA IS
      ISSUED ABOUT 10 MINUTES AFTER THE HOUR.

NMZ501-503-504-510>518-190700-
NORTHWEST PLATEAU/NORTHCENTRAL MOUNTAINS

CITY           SKY/WX    TMP DP  RH WIND       PRES   REMARKS
FARMINGTON     CLEAR     29  26  89 W5        30.17R WCI  24
6HR MIN TEMP:  28; 6HR MAX TEMP:  37;

LOS ALAMOS     PTCLDY    29  26  88 CALM      30.13S
SANTA FE       PTCLDY    31  25  78 N9        30.12R WCI  23
6HR MIN TEMP:  29; 6HR MAX TEMP:  35;

TAOS           CLOUDY    27  21  80 CALM      30.13S
ANGEL FIRE     CLOUDY    23  19  87 S3        30.11S

$$
NMZ402-403-502-505>509-190700-
WESTCENTRAL MOUNTAINS/SOUTHWEST MOUNTAINS

CITY           SKY/WX    TMP DP  RH WIND       PRES   REMARKS
GALLUP         FOG       23  19  85 CALM      30.19S VSB 1
6HR MIN TEMP:  20; 6HR MAX TEMP:  32; 6HR PCP:  0.01;

GRANTS         CLEAR     22  21  94 N6        30.20R WCI  15
SILVER CITY    CLEAR     34  32  93 NW10      30.17S WCI  26

$$
NMZ407-409-411-412-190700-
SOUTHERN DESERTS

CITY           SKY/WX    TMP DP  RH WIND       PRES   REMARKS
LORDSBURG      FAIR      34  34 100 NW6       30.18S WCI  29
DEMING         CLEAR     35  35 100 W6        30.16R WCI  30
6HR MIN TEMP:  35; 6HR MAX TEMP:  44; 6HR PCP:  0.01;

LAS CRUCES     PTCLDY    39  38  95 W7        30.16S WCI  34
HOLLOMAN AFB   CLOUDY    40  39  96 E7        30.14S
ALAMOGORDO     CLOUDY    41  39  93 NE6       30.15F
T OR C         MOCLDY    39  38  96 CALM      30.14S
6HR MIN TEMP:  39; 6HR MAX TEMP:  44; 6HR PCP:  0.03;


$$
NMZ519>523-190700-
CENTRAL VALLEYS/CENTRAL HIGHLANDS

CITY           SKY/WX    TMP DP  RH WIND       PRES   REMARKS
ALBUQUERQUE    PTCLDY    32  27  81 CALM      30.16R
6HR MIN TEMP:  32; 6HR MAX TEMP:  42;

DOUBLE EAGLE   PTCLDY    32  27  80 NW10      30.16R WCI  24
MORIARTY ARPT  FAIR      29  23  77 CALM      30.13R
6HR MIN TEMP:  26; 6HR MAX TEMP:  37;

CLINES CORNERS PTCLDY    26  22  84 NW13      30.07S WCI  15
6HR MIN TEMP:  26; 6HR MAX TEMP:  33;

BELEN          FAIR      28  28 100 CALM      30.16S
6HR MIN TEMP:  28; 6HR MAX TEMP:  40;

SOCORRO        FAIR      32  32  99 CALM      30.16R
6HR MIN TEMP:  32; 6HR MAX TEMP:  43;


$$
NMZ524>526-539-540-190700-
SOUTHCENTRAL MOUNTAINS

CITY           SKY/WX    TMP DP  RH WIND       PRES   REMARKS
RUIDOSO        CLOUDY    32  30  93 NW7       30.14S WCI  26

$$
NMZ527>531-190700-
NORTHEAST HIGHLANDS/NORTHEAST PLAINS

CITY           SKY/WX    TMP DP  RH WIND       PRES   REMARKS
LAS VEGAS      CLOUDY    24  19  81 NE8       30.07R WCI  15
6HR MIN TEMP:  24; 6HR MAX TEMP:  34;

RATON          MOCLDY    29  23  78 N3        30.08R
6HR MIN TEMP:  28; 6HR MAX TEMP:  37;

CLAYTON        CLOUDY    28  26  92 SW7       30.11R WCI  21
6HR MIN TEMP:  26; 6HR MAX TEMP:  32;


$$
NMZ532>537-190700-
EASTCENTRAL PLAINS

CITY           SKY/WX    TMP DP  RH WIND       PRES   REMARKS
TUCUMCARI      CLOUDY    38  30  73 E12       30.10R WCI  30
6HR MIN TEMP:  38; 6HR MAX TEMP:  44;

CANNON AFB     CLOUDY    35  33  90 E5        30.12S WCI  31
6HR MIN TEMP:  35; 6HR MAX TEMP:  48;

CLOVIS AIRPORT CLOUDY    36  30  80 SE9       30.12S WCI  29

$$
NMZ028-029-538-190700-
SOUTHEAST PLAINS

CITY           SKY/WX    TMP DP  RH WIND       PRES   REMARKS
ROSWELL        MOCLDY    44  37  76 N5        30.10S
6HR MIN TEMP:  44; 6HR MAX TEMP:  52;

ARTESIA        CLOUDY    46  41  81 S6        30.12S
CARLSBAD       CLOUDY    51  37  58 W7        30.10S
6HR MIN TEMP:  51; 6HR MAX TEMP:  57;

HOBBS          LGT RAIN  48  37  66 E7        30.13R


$$



USA.gov is the U.S. government's official web portal to all federal, state and local government web resources and services.